TJS-19

Last updated on Mon Sep 21 2026 00:03:03 GMT+0000 (Coordinated Universal Time)

1 63924U 25097A 26263.76852067 -.00000281 00000+0 00000+0 0 9997 2 63924 3.1362 319.1243 0006290 263.2293 195.1140 1.00269260 5101
UTC large
Height (km)
Speed (km/s)
/
Latitude / Longitude
Inclination (degrees)
Orbital Period (minutes)
Azimuth
Elevation
Range (km)
Doppler Factor

Next 0 passes for location: London (51.5072 / 0.1276)

No passes found over London.
TJS-19